DateTimeUTC,F1_A11,F1_S11,BsB_S11,BsG_S11,BsR_S11,BbsB_S11,BbsG_S11,BbsR_S11,BaB_A11,BaG_A11,BaR_A11,Tu_S11,T_S11,Uu_S11,U_S11,P_S11,T1_A11
2021-08-13T09:00:00Z,00000200,20000000,,,,,,,0000.12,-000.16,-000.28,18.1,24.8,06.2,04.1,0674.8,30.9
2021-08-13T09:01:00Z,00000200,20000000,,,,,,,0000.23,0000.10,0000.41,18.1,24.9,06.2,04.1,0674.8,30.9
2021-08-13T09:02:00Z,00000200,20000000,,,,,,,-000.14,0000.01,-000.73,18.1,24.9,06.2,04.1,0674.8,30.9
2021-08-13T09:03:00Z,00000200,60000000,,,,,,,0000.41,0000.44,0000.81,18.2,24.9,06.2,04.1,0674.8,30.9
2021-08-13T09:04:00Z,00000200,40000000,0002.74,0002.01,0001.42,0000.37,0000.24,-000.05,0000.53,0000.52,0000.35,18.4,24.8,06.0,04.0,0675.7,30.9
2021-08-13T09:05:00Z,00000200,00000000,0002.90,0002.04,0001.54,0000.48,0000.38,0000.52,0000.62,0000.30,0000.17,18.4,24.7,06.0,04.1,0675.8,30.9
2021-08-13T09:06:00Z,00000200,00000000,0002.89,0001.80,0001.13,0000.04,0000.49,-000.24,0000.46,0000.60,0000.62,18.4,24.7,06.0,04.1,0675.8,30.9
2021-08-13T09:07:00Z,00000200,00000000,0002.99,0002.09,0001.13,0000.17,0000.38,0000.05,0000.72,0000.71,0000.26,18.4,24.6,06.0,04.1,0675.8,30.8
2021-08-13T09:08:00Z,00000200,00000000,0002.88,0002.01,0001.03,0000.68,0000.23,-000.00,0000.26,0000.46,0000.28,18.3,24.7,06.1,04.1,0675.8,30.8
2021-08-13T09:09:00Z,00000200,00000000,0002.29,0002.07,0001.69,0000.42,0000.18,0000.10,0000.70,0000.62,0000.54,18.3,24.6,06.0,04.0,0675.9,30.8
2021-08-13T09:10:00Z,00000200,00000000,0001.83,0001.98,0001.09,0000.31,0000.57,0000.06,0000.69,0000.53,0000.52,18.3,24.6,06.1,04.1,0675.9,30.8
2021-08-13T09:11:00Z,00000200,00000000,0003.17,0002.10,0001.29,0000.27,0000.28,0000.17,0000.75,0000.58,0000.29,18.2,24.6,06.0,04.1,0675.9,30.8
2021-08-13T09:12:00Z,00000200,00000000,0003.00,0001.75,0001.23,0000.54,0000.22,0000.40,0000.40,0000.33,0000.60,18.2,24.6,05.9,04.0,0675.8,30.8
2021-08-13T09:13:00Z,00000200,00000000,0002.09,0002.00,0001.45,0000.56,0000.20,0000.24,0000.73,0001.04,0000.35,18.3,24.6,06.0,04.1,0675.8,30.8
2021-08-13T09:14:00Z,00000200,00000000,0003.45,0002.10,0001.12,0000.53,0000.25,0000.35,0000.53,-000.10,0000.55,18.4,24.7,05.9,04.0,0675.9,30.8
2021-08-13T09:15:00Z,00000200,00000000,0003.19,0001.85,0001.39,0000.12,0000.26,0000.14,0000.56,0000.65,0000.28,18.4,24.7,05.7,03.9,0675.9,30.9
2021-08-13T09:16:00Z,00000200,00000000,0003.28,0002.06,0001.41,0000.54,0000.12,0000.23,0000.62,0000.48,0000.36,18.5,24.7,05.7,03.9,0675.9,30.9
2021-08-13T09:17:00Z,00000200,00000000,0002.13,0002.12,0001.27,0001.03,0000.21,0000.05,0000.60,0000.65,0000.25,18.5,24.7,05.7,03.9,0675.9,30.9
2021-08-13T09:18:00Z,00000200,00000000,0003.60,0002.23,0001.19,0000.48,0000.30,0000.14,0000.50,0000.60,0000.55,18.5,24.7,05.6,03.8,0676.0,30.9
2021-08-13T09:19:00Z,00000200,00000000,0003.02,0001.98,0001.03,0000.54,0000.20,-000.03,0000.89,0000.63,0000.56,18.4,24.7,05.6,03.8,0676.1,30.9
2021-08-13T09:20:00Z,00000200,00000000,0003.57,0002.11,0001.24,0000.85,0000.19,0000.24,0000.28,0000.44,-000.09,18.4,24.7,05.5,03.8,0676.1,30.8
2021-08-13T09:21:00Z,00000200,00000000,0003.59,0001.91,0001.32,0000.28,0000.30,0000.00,0000.77,0000.83,0000.69,18.4,24.6,05.6,03.8,0676.1,30.8
2021-08-13T09:22:00Z,00000200,00000000,0002.96,0002.35,0001.64,0000.20,0000.16,0000.19,0000.74,0000.36,0000.73,18.3,24.6,05.5,03.7,0676.1,30.8
2021-08-13T09:23:00Z,00000200,00000000,0002.87,0002.24,0000.90,0000.27,0000.33,0000.04,0000.55,0000.72,0000.65,18.3,24.6,05.6,03.8,0676.1,30.8
2021-08-13T09:24:00Z,00000200,00000000,0002.56,0002.06,0001.35,0000.92,-000.00,0000.02,0000.42,0000.09,-000.22,18.3,24.6,05.4,03.7,0676.1,30.8
2021-08-13T09:25:00Z,00000200,00000000,0002.66,0001.91,0001.56,-000.12,0000.07,0000.30,0000.68,0001.07,0000.66,18.3,24.6,05.6,03.8,0676.1,30.8
2021-08-13T09:26:00Z,00000200,00000000,0002.26,0002.06,0001.36,0001.00,0000.32,0000.23,0000.95,0000.48,0000.50,18.3,24.6,05.6,03.8,0676.1,30.8
2021-08-13T09:27:00Z,00000200,00000000,0002.96,0002.13,0001.27,0000.48,0000.26,0000.07,0000.67,0000.69,0000.29,18.3,24.6,05.6,03.8,0676.2,30.8
2021-08-13T09:28:00Z,00000200,00000000,0002.79,0001.71,0001.31,0000.05,0000.18,0000.15,0000.41,0000.62,0000.61,18.3,24.6,05.6,03.8,0676.1,30.8
2021-08-13T09:29:00Z,00000200,00000000,0002.92,0002.11,0001.20,-000.04,0000.34,-000.02,0000.38,0000.65,0000.48,18.4,24.6,05.6,03.8,0676.0,30.9
2021-08-13T09:30:00Z,00000200,00000000,0002.99,0002.01,0001.33,0000.78,0000.43,-000.10,0001.07,0000.33,0000.49,18.4,24.6,05.7,03.9,0675.9,30.9
2021-08-13T09:31:00Z,00000200,00000000,0002.88,0001.88,0001.26,0000.46,0000.25,-000.19,0000.57,0000.65,0000.35,18.4,24.6,05.7,03.9,0675.8,30.9
2021-08-13T09:32:00Z,00000200,00000000,0002.89,0002.22,0001.26,0000.19,0000.26,-000.02,0000.43,0000.63,0000.45,18.4,24.6,05.6,03.8,0675.8,30.8
2021-08-13T09:33:00Z,00000200,00000000,0003.40,0002.36,0001.23,0001.12,0000.22,0000.10,0000.57,0000.60,0000.50,18.4,24.6,05.7,03.9,0675.8,30.9
2021-08-13T09:34:00Z,00000200,00000000,0002.61,0002.07,0001.45,0000.71,0000.22,-000.15,0000.82,0000.89,0000.72,18.4,24.6,05.8,04.0,0675.7,30.9
2021-08-13T09:35:00Z,00000200,00000000,0002.27,0002.36,0001.10,0000.10,0000.36,-000.32,0000.47,-000.07,0000.32,18.3,24.6,05.7,03.9,0675.7,30.8
2021-08-13T09:36:00Z,00000200,00000000,0003.54,0002.15,0000.81,0000.55,0000.04,0000.05,0000.67,0000.61,0000.44,18.3,24.6,05.7,03.9,0675.6,30.8
2021-08-13T09:37:00Z,00000200,00000000,0002.75,0002.38,0001.41,0000.49,0000.56,-000.21,0000.62,0000.64,0000.27,18.3,24.6,05.9,04.0,0675.7,30.8
2021-08-13T09:38:00Z,00000200,00000000,0002.98,0001.97,0001.40,0000.64,0000.49,0000.04,0000.71,0000.50,0000.86,18.3,24.6,05.8,03.9,0675.7,30.8
2021-08-13T09:39:00Z,00000200,00000000,0002.95,0002.17,0001.60,0001.00,0000.22,0000.19,0000.50,0000.94,0000.14,18.2,24.5,05.8,03.9,0675.8,30.8
2021-08-13T09:40:00Z,00000200,00000000,0002.52,0002.54,0001.41,0000.57,0000.27,0000.06,0000.67,0000.35,0000.43,18.2,24.5,05.8,04.0,0675.8,30.8
2021-08-13T09:41:00Z,00000200,00000000,0002.94,0002.41,0001.23,0000.43,0000.21,0000.01,0000.87,0000.73,0000.86,18.2,24.5,05.9,04.0,0675.7,30.8
2021-08-13T09:42:00Z,00000200,00000000,0003.12,0001.78,0001.56,0000.48,-000.06,0000.33,0000.82,0000.70,0000.31,18.2,24.5,05.9,04.0,0675.8,30.8
2021-08-13T09:43:00Z,00000200,00000000,0003.38,0002.04,0001.26,0000.48,0000.12,0000.07,0000.60,0000.92,0000.51,18.3,24.5,05.9,04.0,0675.8,30.8
2021-08-13T09:44:00Z,00000200,00000000,0002.98,0002.27,0001.31,0000.28,0000.22,0000.14,0000.60,0000.60,0000.57,18.3,24.6,06.0,04.1,0675.8,30.8
2021-08-13T09:45:00Z,00000200,00000000,0003.45,0002.15,0001.58,-000.10,0000.15,-000.02,0000.74,0000.54,0000.61,18.4,24.6,05.9,04.0,0675.8,30.9
2021-08-13T09:46:00Z,00000200,00000000,0003.12,0001.91,0001.50,0000.12,0000.15,0000.27,0000.83,0000.88,0000.59,18.5,24.7,06.0,04.1,0675.8,30.9
2021-08-13T09:47:00Z,00000200,00000000,0002.29,0002.33,0001.60,0000.19,0000.26,0000.30,0000.45,0000.07,0000.21,18.5,24.7,05.9,04.1,0675.8,30.9
2021-08-13T09:48:00Z,00000200,00000000,0003.24,0001.99,0001.31,0000.41,0000.39,0000.21,0000.53,0000.60,0000.53,18.5,24.7,05.9,04.0,0675.8,30.9
2021-08-13T09:49:00Z,00000200,00000000,0002.52,0002.36,0001.36,0000.33,0000.30,0000.28,0000.69,0000.78,0000.45,18.5,24.7,05.9,04.0,0675.8,30.9
2021-08-13T09:50:00Z,00000200,00000000,0002.83,0002.35,0001.16,0000.91,0000.43,-000.16,0000.31,0000.36,0000.04,18.5,24.7,05.9,04.0,0675.8,30.9
2021-08-13T09:51:00Z,00000200,00000000,0002.36,0002.67,0001.24,-000.00,0000.57,0000.10,0000.89,0000.81,0000.64,18.5,24.6,05.8,04.0,0675.8,30.9
2021-08-13T09:52:00Z,00000200,00000000,0003.48,0002.25,0001.37,0000.56,0000.14,0000.33,0000.82,0000.56,0000.72,18.4,24.6,06.0,04.1,0675.7,30.9
2021-08-13T09:53:00Z,00000200,00000000,0001.87,0002.16,0001.31,0001.19,0000.51,-000.07,0000.53,0000.29,0000.32,18.4,24.6,06.0,04.1,0675.8,30.8
2021-08-13T09:54:00Z,00000200,00000000,0003.43,0002.28,0001.24,0000.45,0000.55,0000.36,0000.55,0000.80,0000.12,18.4,24.6,06.0,04.1,0675.7,30.8
2021-08-13T09:55:00Z,00000200,00000000,0002.89,0001.98,0001.42,0000.89,0000.50,0000.26,0000.84,0000.39,0000.79,18.3,24.5,06.0,04.1,0675.7,30.8
2021-08-13T09:56:00Z,00000200,00000000,0003.21,0002.48,0001.22,0000.14,0000.26,0000.32,0000.67,0001.05,0000.52,18.3,24.5,06.0,04.1,0675.7,30.8
2021-08-13T09:57:00Z,00000200,40000000,,,,,,,0000.23,0000.07,-000.06,18.3,24.6,05.7,03.9,0675.7,30.8
2021-08-13T09:58:00Z,00000200,60000000,,,,,,,-000.09,0000.09,0000.21,18.1,24.7,05.9,03.9,0674.6,30.8
2021-08-13T09:59:00Z,00000200,20000000,,,,,,,0000.03,-000.14,-000.01,18.1,24.8,05.9,03.9,0674.6,30.9
